KC4LW Weather Reports


Display with metric or nautical units.
time (UTC)temp
F
wind
direction
speed
MPH
gust
MPH
rain 1hr
in
rain 24hr
in
rain mn
in
humidity
%
barometer
mb
20260504203054 75 107 2.0 10.0 0.00 0.02 0.02 59 1015.8
20260504201553 75 88 3.0 12.0 0.00 0.02 0.02 58 1015.9
20260504194553 76 75 4.0 10.0 0.00 0.02 0.02 55 1015.9
20260504193054 75 105 2.0 12.0 0.00 0.02 0.02 55 1016.2
20260504191555 76 104 3.0 14.0 0.00 0.02 0.02 54 1016.2
20260504190054 75 46 3.0 11.0 0.00 0.02 0.02 54 1016.3
20260504184557 76 133 2.0 8.0 0.00 0.02 0.02 53 1016.9
20260504183056 76 106 4.0 13.0 0.00 0.02 0.02 52 1017.0
20260504181604 76 68 4.0 10.0 0.00 0.02 0.02 52 1017.1
20260504180100 77 106 2.0 9.0 0.00 0.02 0.02 51 1017.1
20260504174556 76 94 3.0 12.0 0.00 0.02 0.02 53 1017.2
20260504173059 76 105 3.0 8.0 0.00 0.02 0.02 52 1017.3
20260504171558 76 80 2.0 10.0 0.00 0.02 0.02 50 1017.6
20260504081553 57 0 0.0 1.0 0.00 0.01 0.00 93 1016.7
20260504044551 63 0 0.0 0.0 0.00 0.01 0.00 82 1017.7
20260504043059 64 0 0.0 2.0 0.00 0.01 0.00 82 1017.9
20260504041553 64 0 0.0 2.0 0.00 0.01 0.00 81 1017.8
20260504040058 65 0 0.0 1.0 0.00 0.01 0.00 80 1017.8
20260504034552 65 0 0.0 3.0 0.00 0.01 0.01 79 1017.9
20260504033054 66 0 0.0 3.0 0.00 0.01 0.01 78 1017.9
20260504031553 66 103 1.0 5.0 0.00 0.01 0.01 77 1017.8
20260504030049 66 0 1.0 3.0 0.00 0.01 0.01 77 1017.9
20260504024558 66 66 0.0 7.0 0.00 0.01 0.01 76 1017.9
20260504023050 66 102 1.0 4.0 0.00 0.01 0.01 76 1017.9
20260504021557 66 94 1.0 6.0 0.00 0.01 0.01 76 1017.6
20260504020127 66 94 1.0 6.0 0.00 0.01 0.01 76 1017.4
20260504014603 66 93 1.0 4.0 0.00 0.01 0.01 76 1017.4
20260504013116 66 0 0.0 4.0 0.00 0.01 0.01 75 1017.2
20260504011558 66 67 1.0 4.0 0.00 0.01 0.01 75 1016.9
20260504010057 66 87 1.0 4.0 0.00 0.01 0.01 74 1016.8
20260504004638 66 90 1.0 8.0 0.00 0.01 0.01 74 1016.6
20260504003101 66 152 0.0 7.0 0.00 0.01 0.01 73 1017.0
20260504001623 67 86 1.0 6.0 0.00 0.01 0.01 72 1016.8
20260504000105 67 78 1.0 4.0 0.00 0.01 0.01 71 1016.6
20260503234601 68 0 0.0 6.0 0.00 0.01 0.01 69 1016.9
20260503233100 68 61 0.0 7.0 0.00 0.01 0.01 69 1016.7
20260503231557 69 89 1.0 7.0 0.00 0.01 0.01 67 1016.8
20260503230110 69 99 1.0 10.0 0.00 0.01 0.01 64 1016.6
20260503224559 69 65 1.0 3.0 0.00 0.01 0.01 62 1016.6
20260503223056 70 94 1.0 8.0 0.00 0.01 0.01 59 1016.7
20260503221602 71 5 1.0 4.0 0.00 0.01 0.01 57 1016.5
20260503220058 71 5 1.0 8.0 0.00 0.01 0.01 56 1016.8
20260503214558 71 70 1.0 6.0 0.00 0.01 0.01 56 1016.9
20260503213056 71 72 2.0 8.0 0.00 0.01 0.01 55 1016.8
20260503211557 71 26 1.0 9.0 0.00 0.01 0.01 60 1016.8
20260503210048 72 105 2.0 9.0 0.00 0.01 0.01 57 1016.7
20260503204556 71 85 2.0 9.0 0.00 0.01 0.01 56 1017.1